User: anonymous   Login
Location: Arbon
(43.0005°N, 0.7472°E)
Time: 18:37:58
(UTC+00:00)
Language:

TIMED - Orbit

View from above orbital plane
View from above orbital plane
View from above satellite
View from above satellite

Ground track
Ground track

The orbit data is extracted from the following two-line orbital elements,

1 26998U 01055B   20298.53355040  .00000170  00000-0  22501-4 0  9993
2 26998  74.0743  36.2293 0000499 316.6024  43.5117 14.88224893 23746
Epoch (UTC): 24 October 2020 12:48:18
Eccentricity: 0.0000499
inclination: 74.0743°
perigee height: 603 km
apogee height: 604 km
right ascension of ascending node: 36.2293°
argument of perigee: 316.6024°
revolutions per day: 14.88224893
mean anomaly at epoch: 43.5117°
orbit number at epoch: 2374

The dashed part of the orbit path shows where the satellite is in the earth's shadow,  

DLR